DW5861 Weather Reports


Display with metric or nautical units.
time (UTC)temp
F
wind
direction
speed
MPH
gust
MPH
rain 1hr
in
rain 24hr
in
rain mn
in
humidity
%
barometer
mb
20260905224504 80 133 1.0 2.0 0.04 0.56 0.56 90 1012.0
20260905224004 80 107 1.0 2.0 0.03 0.55 0.55 90 1012.0
20260905223504 80 97 1.0 2.0 0.03 0.55 0.55 89 1012.0
20260905223025 80 109 1.0 3.0 0.03 0.55 0.55 89 1011.9
20260905222504 80 96 0.0 3.0 0.03 0.55 0.55 89 1011.9
20260905222003 80 24 0.0 2.0 0.03 0.55 0.55 89 1011.9
20260905221504 81 46 1.0 2.0 0.03 0.55 0.55 88 1011.9
20260905221004 81 93 1.0 2.0 0.02 0.54 0.54 88 1012.0
20260905220503 81 91 1.0 2.0 0.01 0.53 0.53 88 1012.0
20260905220004 82 67 1.0 2.0 0.00 0.52 0.52 87 1012.1
20260905215524 82 58 1.0 2.0 0.00 0.52 0.52 86 1012.1
20260905215003 82 97 1.0 2.0 0.00 0.52 0.52 86 1012.2
20260905214504 83 98 1.0 3.0 0.00 0.52 0.52 85 1012.2
20260905214003 83 110 1.0 3.0 0.00 0.52 0.52 84 1012.1
20260905213504 84 100 1.0 2.0 0.00 0.52 0.52 83 1012.1
20260905213003 84 83 1.0 2.0 0.00 0.52 0.52 82 1012.1
20260905212503 84 121 1.0 2.0 0.00 0.52 0.52 80 1012.0
20260905212003 84 132 1.0 2.0 0.00 0.52 0.52 79 1012.1
20260905211503 84 119 1.0 2.0 0.00 0.52 0.52 78 1012.1
20260905211003 84 41 2.0 3.0 0.00 0.52 0.52 80 1012.1
20260905210504 85 11 2.0 3.0 0.00 0.52 0.52 78 1012.1
20260905210004 86 181 1.0 4.0 0.00 0.52 0.52 79 1012.1
20260905205524 87 200 2.0 5.0 0.00 0.52 0.52 78 1012.0
20260905205003 87 230 1.0 5.0 0.00 0.52 0.52 77 1011.9
20260905204503 87 193 1.0 3.0 0.00 0.52 0.52 79 1011.9
20260905204004 87 205 2.0 4.0 0.00 0.52 0.52 79 1012.0
20260905203524 86 224 2.0 4.0 0.00 0.52 0.52 79 1012.0
20260905203003 86 234 1.0 4.0 0.00 0.52 0.52 79 1012.0
20260905202503 86 234 1.0 3.0 0.00 0.52 0.52 81 1012.0
20260905202024 85 247 1.0 3.0 0.00 0.52 0.52 82 1012.0
20260905201504 85 257 1.0 3.0 0.00 0.52 0.52 83 1012.1
20260905201003 85 337 1.0 3.0 0.00 0.52 0.52 82 1012.2
20260905200503 85 347 1.0 2.0 0.00 0.52 0.52 83 1012.4
20260905200004 86 312 1.0 4.0 0.00 0.52 0.52 83 1012.4
20260905195503 88 224 1.0 4.0 0.00 0.52 0.52 81 1012.3
20260905195004 88 216 2.0 4.0 0.00 0.52 0.52 78 1012.2
20260905194524 89 215 2.0 4.0 0.00 0.52 0.52 77 1012.2
20260905194003 87 204 2.0 4.0 0.00 0.52 0.52 79 1012.3
20260905193503 86 203 2.0 4.0 0.00 0.52 0.52 83 1012.3
20260905193025 84 238 1.0 3.0 0.01 0.52 0.52 87 1012.3
20260905192503 83 2 1.0 3.0 0.01 0.52 0.52 85 1012.3
20260905192003 82 351 1.0 2.0 0.01 0.52 0.52 88 1012.1
20260905191504 81 341 1.0 2.0 0.03 0.52 0.52 89 1012.0
20260905191003 80 327 1.0 2.0 0.09 0.52 0.52 91 1012.0
20260905190503 80 1 1.0 2.0 0.25 0.52 0.52 91 1012.0
20260905190003 79 41 1.0 4.0 0.28 0.52 0.52 90 1012.3
20260905185504 80 37 1.0 4.0 0.41 0.52 0.52 91 1012.5
20260905185003 80 358 1.0 3.0 0.44 0.52 0.52 91 1012.6
20260905184503 80 312 1.0 3.0 0.52 0.52 0.52 91 1012.6
20260905184003 80 332 1.0 2.0 0.52 0.52 0.52 91 1012.7
20260905183504 79 337 0.0 2.0 0.52 0.52 0.52 90 1013.0
20260905183003 79 132 1.0 3.0 0.51 0.51 0.51 90 1013.1
20260905182503 80 144 1.0 3.0 0.51 0.51 0.51 90 1013.2
20260905182003 80 221 1.0 4.0 0.51 0.51 0.51 90 1013.1
20260905181503 80 220 1.0 4.0 0.49 0.49 0.49 89 1013.1
20260905181003 80 22 1.0 4.0 0.43 0.43 0.43 88 1013.2
20260905180503 80 8 3.0 9.0 0.27 0.27 0.27 86 1013.3
20260905180003 82 25 4.0 9.0 0.24 0.24 0.24 84 1013.2
20260905175503 84 48 2.0 4.0 0.11 0.11 0.11 81 1013.2
20260905175003 86 233 2.0 4.0 0.08 0.08 0.08 80 1012.9
20260905174524 87 238 2.0 6.0 0.00 0.00 0.00 74 1012.8
20260905174004 87 228 2.0 6.0 0.00 0.00 0.00 73 1012.9
20260905173504 87 213 1.0 4.0 0.00 0.00 0.00 73 1013.1
20260905173004 87 230 2.0 4.0 0.00 0.00 0.00 73 1013.1
20260905172503 87 227 3.0 5.0 0.00 0.00 0.00 73 1013.1
20260905172003 88 220 3.0 5.0 0.00 0.00 0.00 72 1013.3
20260905171503 88 220 2.0 5.0 0.00 0.00 0.00 72 1013.3
20260905171024 89 218 3.0 6.0 0.00 0.00 0.00 71 1013.2
20260905170504 89 222 3.0 7.0 0.00 0.00 0.00 72 1013.2
20260905170003 90 235 3.0 7.0 0.00 0.00 0.00 70 1013.3
20260905165504 92 182 3.0 5.0 0.00 0.00 0.00 65 1013.3
20260905165003 93 136 3.0 5.0 0.00 0.00 0.00 65 1013.3
20260905164503 94 93 2.0 5.0 0.00 0.00 0.00 65 1013.4
20260905164003 92 137 2.0 4.0 0.00 0.00 0.00 68 1013.5
20260905163503 92 130 2.0 4.0 0.00 0.00 0.00 70 1013.5
20260905163003 88 28 1.0 4.0 0.00 0.00 0.00 74 1013.6
20260905162503 89 33 2.0 3.0 0.00 0.00 0.00 76 1013.7
20260905162003 90 44 2.0 5.0 0.00 0.00 0.00 73 1013.6
20260905161503 90 55 2.0 5.0 0.00 0.00 0.00 71 1013.8
20260905161003 90 66 2.0 4.0 0.00 0.00 0.00 72 1013.8
20260905160504 90 71 2.0 4.0 0.00 0.00 0.00 71 1013.9
20260905160025 90 85 2.0 4.0 0.00 0.00 0.00 72 1013.9
20260905155525 90 71 2.0 4.0 0.00 0.00 0.00 72 1013.9
20260905155003 89 17 2.0 4.0 0.00 0.00 0.00 73 1013.9
20260905154503 88 328 2.0 5.0 0.00 0.00 0.00 76 1014.0
20260905154003 88 3 2.0 5.0 0.00 0.00 0.00 78 1013.9
20260905153503 88 1 2.0 5.0 0.00 0.00 0.00 78 1013.9
20260905153003 88 20 2.0 5.0 0.00 0.00 0.00 76 1013.9
20260905152524 88 32 2.0 5.0 0.00 0.00 0.00 78 1013.9
20260905152004 87 261 1.0 3.0 0.00 0.00 0.00 80 1014.0
20260905151503 87 208 2.0 4.0 0.00 0.00 0.00 80 1014.0
20260905151003 86 220 2.0 4.0 0.00 0.00 0.00 81 1013.9
20260905150503 85 320 2.0 4.0 0.00 0.00 0.00 83 1013.9
20260905150003 84 215 1.0 4.0 0.00 0.00 0.00 85 1014.0
20260905145504 84 187 1.0 3.0 0.00 0.00 0.00 86 1013.9
20260905145003 83 91 1.0 2.0 0.00 0.00 0.00 87 1013.9
20260905144503 82 26 1.0 2.0 0.00 0.00 0.00 87 1013.9
20260905144025 82 12 1.0 2.0 0.00 0.00 0.00 88 1014.0
20260905143503 82 7 1.0 2.0 0.00 0.00 0.00 88 1014.0
20260905143003 82 58 0.0 2.0 0.00 0.00 0.00 90 1014.0
20260905142524 82 316 1.0 3.0 0.00 0.00 0.00 91 1014.0
20260905142003 81 340 1.0 3.0 0.00 0.00 0.00 91 1014.0
20260905141524 81 333 1.0 3.0 0.00 0.00 0.00 93 1014.0
20260905141003 80 330 1.0 3.0 0.00 0.00 0.00 94 1014.0
20260905140503 80 355 1.0 2.0 0.00 0.00 0.00 94 1014.0
20260905140004 79 349 1.0 2.0 0.00 0.00 0.00 94 1014.0
20260905135503 79 346 1.0 2.0 0.00 0.00 0.00 94 1014.0
20260905135004 79 340 1.0 2.0 0.00 0.00 0.00 94 1014.0
20260905134524 79 295 1.0 2.0 0.00 0.00 0.00 95 1013.9
20260905134003 78 249 1.0 2.0 0.00 0.00 0.00 95 1013.9
20260905133503 78 218 1.0 2.0 0.00 0.00 0.00 95 1013.8
20260905133003 78 194 1.0 2.0 0.00 0.00 0.00 95 1013.8
20260905132504 78 196 1.0 2.0 0.00 0.00 0.00 95 1013.8
20260905132003 78 182 1.0 2.0 0.00 0.00 0.00 94 1013.9
20260905131503 78 158 0.0 1.0 0.00 0.00 0.00 94 1013.8
20260905131003 77 216 1.0 2.0 0.00 0.00 0.00 94 1013.8
20260905130503 77 219 1.0 2.0 0.00 0.00 0.00 94 1013.7
20260905130003 77 201 1.0 2.0 0.00 0.00 0.00 94 1013.7
20260905125524 77 211 1.0 2.0 0.00 0.00 0.00 94 1013.7
20260905125003 77 215 1.0 2.0 0.00 0.00 0.00 94 1013.6
20260905124504 77 219 0.0 2.0 0.00 0.00 0.00 94 1013.6
20260905124003 77 35 0.0 1.0 0.00 0.00 0.00 94 1013.6
20260905123503 76 9 0.0 1.0 0.00 0.00 0.00 94 1013.6
20260905123025 76 335 0.0 1.0 0.00 0.00 0.00 93 1013.5
20260905122503 76 355 0.0 1.0 0.00 0.00 0.00 93 1013.5
20260905122005 76 1 0.0 1.0 0.00 0.00 0.00 93 1013.5
20260905121503 76 347 0.0 1.0 0.00 0.00 0.00 93 1013.4
20260905121003 76 349 0.0 1.0 0.00 0.00 0.00 93 1013.4
20260905120503 76 26 0.0 1.0 0.00 0.00 0.00 93 1013.3
20260905120004 76 36 0.0 1.0 0.00 0.00 0.00 93 1013.3
20260905115503 76 41 0.0 1.0 0.00 0.00 0.00 93 1013.2
20260905115003 76 22 0.0 1.0 0.00 0.00 0.00 93 1013.1
20260905114503 76 25 0.0 1.0 0.00 0.00 0.00 93 1013.2
20260905114004 76 28 0.0 1.0 0.00 0.00 0.00 93 1013.2
20260905113503 76 39 0.0 1.0 0.00 0.00 0.00 93 1013.1
20260905113003 76 41 0.0 1.0 0.00 0.00 0.00 93 1013.1
20260905112503 76 169 0.0 1.0 0.00 0.00 0.00 93 1013.1
20260905112003 76 167 0.0 1.0 0.00 0.00 0.00 93 1013.1
20260905111503 76 167 0.0 1.0 0.00 0.00 0.00 93 1013.1
20260905111003 76 160 1.0 1.0 0.00 0.00 0.00 93 1013.1
20260905110503 76 156 0.0 1.0 0.00 0.00 0.00 93 1013.0
20260905110004 76 350 0.0 1.0 0.00 0.00 0.00 93 1013.0
20260905105503 76 318 0.0 1.0 0.00 0.00 0.00 93 1013.0
20260905105003 76 313 0.0 1.0 0.00 0.00 0.00 93 1012.9
20260905104503 76 310 0.0 1.0 0.00 0.00 0.00 92 1013.0
20260905104003 76 0 0.0 0.0 0.00 0.00 0.00 92 1012.9
20260905103503 76 143 0.0 2.0 0.00 0.00 0.00 93 1012.9
20260905103003 76 114 0.0 2.0 0.00 0.00 0.00 92 1012.9
20260905102503 76 75 0.0 1.0 0.00 0.00 0.00 92 1012.8
20260905102003 76 200 0.0 1.0 0.00 0.00 0.00 92 1012.7
20260905101503 76 171 0.0 1.0 0.00 0.00 0.00 92 1012.7
20260905101003 76 152 0.0 1.0 0.00 0.00 0.00 92 1012.6
20260905100503 76 150 0.0 1.0 0.00 0.00 0.00 92 1012.7
20260905100003 76 154 0.0 1.0 0.00 0.00 0.00 92 1012.6
20260905095503 76 194 0.0 1.0 0.00 0.00 0.00 92 1012.6
20260905095003 76 165 0.0 1.0 0.00 0.00 0.00 92 1012.5
20260905094504 76 159 0.0 1.0 0.00 0.00 0.00 92 1012.5
20260905094024 77 180 0.0 1.0 0.00 0.00 0.00 92 1012.5
20260905093504 76 241 0.0 1.0 0.00 0.00 0.00 92 1012.4
20260905093024 76 358 0.0 1.0 0.00 0.00 0.00 92 1012.4
20260905092503 76 40 0.0 1.0 0.00 0.00 0.00 92 1012.4
20260905092003 76 38 0.0 1.0 0.00 0.00 0.00 92 1012.4
20260905091503 76 347 0.0 1.0 0.00 0.00 0.00 92 1012.3
20260905091004 76 215 0.0 1.0 0.00 0.00 0.00 92 1012.4
20260905090524 76 207 0.0 1.0 0.00 0.00 0.00 92 1012.4
20260905090003 77 176 0.0 1.0 0.00 0.00 0.00 92 1012.3
20260905085503 77 172 0.0 1.0 0.00 0.00 0.00 92 1012.4
20260905085003 77 178 0.0 1.0 0.00 0.00 0.00 92 1012.4
20260905084503 77 212 0.0 1.0 0.00 0.00 0.00 91 1012.3
20260905084005 77 236 0.0 1.0 0.00 0.00 0.00 91 1012.3
20260905083524 77 251 0.0 1.0 0.00 0.00 0.00 91 1012.2
20260905083003 77 271 0.0 1.0 0.00 0.00 0.00 91 1012.3
20260905082503 77 12 0.0 1.0 0.00 0.00 0.00 91 1012.3
20260905082005 77 50 0.0 2.0 0.00 0.00 0.00 91 1012.4
20260905081524 77 54 0.0 2.0 0.00 0.00 0.00 91 1012.4
20260905081003 77 154 0.0 1.0 0.00 0.00 0.00 91 1012.4
20260905080503 77 131 1.0 2.0 0.00 0.00 0.00 91 1012.4
20260905080003 77 137 1.0 2.0 0.00 0.00 0.00 91 1012.4
20260905075503 77 163 1.0 2.0 0.00 0.00 0.00 91 1012.4
20260905075025 77 195 0.0 1.0 0.00 0.00 0.00 91 1012.5
20260905074504 77 176 0.0 1.0 0.00 0.00 0.00 91 1012.6
20260905074025 77 169 0.0 1.0 0.00 0.00 0.00 90 1012.6
20260905073504 77 209 0.0 1.0 0.00 0.00 0.00 90 1012.6
20260905073004 77 207 1.0 2.0 0.00 0.00 0.00 90 1012.6
20260905072525 77 194 0.0 2.0 0.00 0.00 0.00 90 1012.6
20260905072004 77 110 0.0 1.0 0.00 0.00 0.00 90 1012.7
20260905071504 77 123 0.0 2.0 0.00 0.00 0.00 90 1012.7
20260905071004 77 154 0.0 2.0 0.00 0.00 0.00 90 1012.8
20260905070504 77 287 0.0 1.0 0.00 0.00 0.00 90 1012.8
20260905070004 78 302 0.0 1.0 0.00 0.00 0.00 90 1012.8
20260905065504 78 6 0.0 1.0 0.00 0.00 0.00 90 1012.8
20260905065004 78 6 0.0 1.0 0.00 0.00 0.00 90 1012.7
20260905064504 78 271 0.0 2.0 0.00 0.00 0.00 90 1012.7
20260905064025 78 238 0.0 2.0 0.00 0.00 0.00 90 1012.7
20260905063504 78 183 0.0 2.0 0.00 0.00 0.00 90 1012.6
20260905063004 78 165 0.0 1.0 0.00 0.00 0.00 90 1012.7
20260905062525 78 130 0.0 1.0 0.00 0.00 0.00 90 1012.6
20260905062004 78 137 1.0 1.0 0.00 0.00 0.00 89 1012.6
20260905061525 78 171 1.0 2.0 0.00 0.00 0.00 89 1012.7
20260905061004 78 190 1.0 2.0 0.00 0.00 0.00 89 1012.6
20260905060504 78 222 1.0 2.0 0.00 0.00 0.00 89 1012.6
20260905060004 78 228 1.0 2.0 0.00 0.00 0.00 89 1012.6
20260905055504 78 220 0.0 2.0 0.00 0.00 0.00 89 1012.6
20260905055004 78 216 0.0 2.0 0.00 0.00 0.00 89 1012.5
20260905054504 79 224 1.0 2.0 0.00 0.00 0.00 89 1012.4
20260905054004 78 211 1.0 2.0 0.00 0.00 0.00 89 1012.4
20260905053504 78 202 1.0 2.0 0.00 0.00 0.00 89 1012.5
20260905053004 79 203 1.0 2.0 0.00 0.00 0.00 88 1012.4
20260905052504 79 207 1.0 2.0 0.00 0.00 0.00 88 1012.4
20260905052025 79 211 1.0 2.0 0.00 0.00 0.00 88 1012.5
20260905051504 79 185 0.0 2.0 0.00 0.00 0.00 88 1012.6
20260905051004 79 174 1.0 2.0 0.00 0.00 0.00 88 1012.6
20260905050504 79 194 1.0 2.0 0.00 0.00 0.00 88 1012.5
20260905050004 79 210 1.0 2.0 0.00 0.00 0.00 88 1012.5
20260905045525 79 210 1.0 2.0 0.00 0.00 0.00 87 1012.6
20260905045025 79 207 1.0 2.0 0.00 0.00 0.00 87 1012.6
20260905044504 79 209 1.0 2.0 0.00 0.00 0.00 87 1012.6
20260905044004 80 210 1.0 3.0 0.00 0.00 0.00 87 1012.6
20260905043504 80 210 1.0 3.0 0.00 0.00 0.00 87 1012.6
20260905043004 80 211 1.0 2.0 0.00 0.00 0.00 87 1012.6
20260905042504 80 198 1.0 2.0 0.00 0.00 0.00 87 1012.6
20260905042025 80 193 1.0 2.0 0.00 0.00 0.00 87 1012.7
20260905041504 80 197 1.0 2.0 0.00 0.00 0.00 86 1012.8
20260905041004 80 198 1.0 2.0 0.00 0.00 0.00 86 1012.9
20260905040504 80 197 1.0 2.0 0.00 0.00 0.00 86 1012.9
20260905040004 80 187 1.0 2.0 0.00 0.00 0.00 86 1012.9
20260905035504 81 175 1.0 2.0 0.00 0.00 0.00 86 1012.9
20260905035004 81 183 1.0 2.0 0.00 0.00 0.00 85 1012.9
20260905034504 81 176 1.0 2.0 0.00 0.00 0.00 85 1012.9
20260905034004 81 164 1.0 2.0 0.00 0.00 0.00 85 1012.9
20260905033504 81 170 1.0 2.0 0.00 0.00 0.00 85 1012.9
20260905033004 81 195 1.0 2.0 0.00 0.00 0.00 84 1013.0
20260905032525 81 207 1.0 2.0 0.00 0.00 0.00 84 1013.0
20260905032004 82 177 1.0 2.0 0.00 0.00 0.00 84 1013.0
20260905031525 82 173 1.0 2.0 0.00 0.00 0.00 84 1013.1
20260905031004 82 214 1.0 2.0 0.00 0.00 0.00 84 1013.0
20260905030504 82 202 1.0 4.0 0.00 0.00 0.00 83 1013.1
20260905030004 82 193 1.0 4.0 0.00 0.00 0.00 83 1013.0
20260905025504 82 185 2.0 4.0 0.00 0.00 0.00 83 1013.0
20260905025004 82 173 1.0 4.0 0.00 0.00 0.00 83 1013.0
20260905024504 82 168 1.0 3.0 0.00 0.00 0.00 83 1013.0
20260905024004 82 178 1.0 2.0 0.00 0.00 0.00 82 1012.9
20260905023504 82 192 1.0 2.0 0.00 0.00 0.00 82 1012.7
20260905023004 82 198 1.0 2.0 0.00 0.00 0.00 82 1012.6
20260905022504 82 186 1.0 2.0 0.00 0.00 0.00 81 1012.5
20260905022004 82 181 1.0 2.0 0.00 0.00 0.00 81 1012.4
20260905021504 83 180 1.0 3.0 0.00 0.00 0.00 81 1012.3
20260905021006 83 179 1.0 3.0 0.00 0.00 0.00 80 1012.3
20260905020504 83 189 1.0 2.0 0.00 0.00 0.00 80 1012.2
20260905020004 83 201 1.0 2.0 0.00 0.00 0.00 79 1012.0
20260905015504 83 193 1.0 2.0 0.00 0.00 0.00 79 1012.0
20260905015004 84 187 1.0 2.0 0.00 0.00 0.00 78 1011.8
20260905014504 84 181 0.0 2.0 0.00 0.00 0.00 77 1011.8
20260905014004 84 169 0.0 1.0 0.00 0.00 0.00 76 1011.8
20260905013504 84 171 1.0 2.0 0.00 0.00 0.00 76 1011.6
20260905013004 85 177 1.0 2.0 0.00 0.00 0.00 75 1011.5
20260905012525 85 170 1.0 2.0 0.00 0.00 0.00 74 1011.4
20260905012004 85 172 1.0 2.0 0.00 0.00 0.00 74 1011.5
20260905011504 86 180 1.0 2.0 0.00 0.00 0.00 73 1011.4
20260905011004 86 193 1.0 2.0 0.00 0.00 0.00 72 1011.4
20260905010525 86 185 1.0 3.0 0.00 0.00 0.00 71 1011.5
20260905010004 86 178 1.0 3.0 0.00 0.00 0.00 70 1011.5
20260905005504 87 184 1.0 2.0 0.00 0.00 0.00 69 1011.5
20260905005004 87 164 1.0 2.0 0.00 0.00 0.00 69 1011.5
20260905004504 88 136 1.0 2.0 0.00 0.00 0.00 68 1011.5
20260905004004 88 147 1.0 2.0 0.00 0.00 0.00 69 1011.4
20260905003504 89 210 1.0 2.0 0.00 0.00 0.00 69 1011.4
20260905003004 90 208 1.0 2.0 0.00 0.00 0.00 69 1011.4
20260905002504 90 201 1.0 2.0 0.00 0.00 0.00 66 1011.5
20260905002004 90 208 1.0 2.0 0.00 0.00 0.00 62 1011.5
20260905001504 91 194 1.0 3.0 0.00 0.00 0.00 61 1011.5
20260905001004 91 172 1.0 3.0 0.00 0.00 0.00 61 1011.5
20260905000525 91 162 2.0 5.0 0.00 0.00 0.00 61 1011.5
20260905000004 92 164 2.0 5.0 0.00 0.00 0.00 60 1011.6
20260904235504 92 152 1.0 4.0 0.00 0.00 0.00 60 1011.5
20260904235004 92 145 1.0 4.0 0.00 0.00 0.00 59 1011.5
20260904234504 92 155 1.0 4.0 0.00 0.00 0.00 58 1011.4
20260904234004 92 155 1.0 3.0 0.00 0.00 0.00 58 1011.3
20260904233504 93 153 2.0 4.0 0.00 0.00 0.00 57 1011.3
20260904233004 93 140 1.0 4.0 0.00 0.00 0.00 56 1011.3
20260904232504 93 145 2.0 3.0 0.00 0.00 0.00 55 1011.3
20260904232004 94 153 2.0 4.0 0.00 0.00 0.00 54 1011.2
20260904231504 94 155 2.0 4.0 0.00 0.00 0.00 54 1011.1
20260904231004 94 151 2.0 6.0 0.00 0.00 0.00 54 1011.1
20260904230504 95 159 3.0 6.0 0.00 0.00 0.00 54 1011.1
20260904230004 95 171 3.0 6.0 0.00 0.00 0.00 54 1011.1
20260904225504 95 179 3.0 7.0 0.00 0.00 0.00 56 1011.1
20260904225004 95 164 3.0 7.0 0.00 0.00 0.00 54 1011.1